GW6549 Weather Reports


Display with metric or nautical units.
time (UTC)temp
F
wind
direction
speed
MPH
gust
MPH
rain 1hr
in
rain 24hr
in
rain mn
in
humidity
%
barometer
mb
20260505062028 61 19 5.0 13.0 0.00 0.00 0.00 42 1009.2
20260505061028 61 35 5.0 9.0 0.00 0.00 0.00 42 1009.2
20260505060027 61 44 3.0 7.0 0.00 0.00 0.00 43 1009.1
20260505055026 61 47 3.0 9.0 0.00 0.00 0.00 42 1009.1
20260505054027 61 86 2.0 5.0 0.00 0.00 0.00 41 1008.9
20260505053026 62 42 4.0 8.0 0.00 0.00 0.00 41 1009.0
20260505052046 63 24 5.0 9.0 0.00 0.00 0.00 41 1009.1
20260505051025 64 47 2.0 8.0 0.00 0.00 0.00 42 1009.1
20260505050108 65 29 6.0 9.0 0.00 0.00 0.00 38 1008.8
20260505041027 66 359 9.0 14.0 0.00 0.00 0.00 33 1008.3
20260505040026 66 8 9.0 15.0 0.00 0.00 0.00 33 1008.1
20260505035027 67 5 6.0 10.0 0.00 0.00 0.00 34 1008.1
20260505034028 67 355 7.0 11.0 0.00 0.00 0.00 33 1008.1
20260505033028 67 0 7.0 10.0 0.00 0.00 0.00 32 1007.9
20260505032027 68 0 6.0 10.0 0.00 0.00 0.00 31 1007.7
20260505031027 68 357 6.0 11.0 0.00 0.00 0.00 31 1007.7
20260505030027 68 327 4.0 10.0 0.00 0.00 0.00 30 1007.5
20260505025026 69 352 5.0 11.0 0.00 0.00 0.00 31 1007.6
20260505024026 70 326 3.0 8.0 0.00 0.00 0.00 31 1007.5
20260505023046 70 354 5.0 11.0 0.00 0.00 0.00 30 1007.3
20260505022027 71 332 6.0 13.0 0.00 0.00 0.00 29 1007.3
20260505021026 71 338 4.0 6.0 0.00 0.00 0.00 30 1007.4
20260505020023 71 316 3.0 6.0 0.00 0.00 0.00 31 1007.5
20260505015024 71 360 4.0 7.0 0.00 0.00 0.00 31 1007.3
20260505014043 72 316 3.0 6.0 0.00 0.00 0.00 31 1007.3
20260505013044 72 1 5.0 11.0 0.00 0.00 0.00 31 1007.3
20260505012024 72 351 5.0 8.0 0.00 0.00 0.00 32 1007.4
20260505011022 72 9 8.0 13.0 0.00 0.00 0.00 30 1007.3
20260505010022 73 1 7.0 11.0 0.00 0.00 0.00 30 1007.3
20260505005018 73 356 6.0 9.0 0.00 0.00 0.00 32 1007.3
20260505004016 74 11 6.0 14.0 0.00 0.00 0.00 30 1007.3
20260505003031 74 14 5.0 9.0 0.00 0.00 0.00 30 1007.6
20260505002030 74 301 3.0 5.0 0.00 0.00 0.00 29 1007.5
20260505001029 74 293 2.0 5.0 0.00 0.00 0.00 29 1007.6
20260505000016 74 346 4.0 9.0 0.00 0.00 0.00 31 1007.7
20260504235028 74 354 4.0 10.0 0.00 0.00 0.00 29 1007.6
20260504234027 74 0 4.0 11.0 0.00 0.00 0.00 30 1007.7
20260504233029 75 355 5.0 14.0 0.00 0.00 0.00 31 1007.7
20260504232048 75 324 4.0 7.0 0.00 0.00 0.00 31 1007.7
20260504231027 75 334 4.0 9.0 0.00 0.00 0.00 31 1007.7
20260504230047 75 356 5.0 13.0 0.00 0.00 0.00 31 1007.7
20260504225025 76 9 3.0 8.0 0.00 0.00 0.00 31 1007.7
20260504224024 75 339 4.0 9.0 0.00 0.00 0.00 32 1007.7
20260504223022 75 5 5.0 11.0 0.00 0.00 0.00 31 1007.7
20260504222044 75 252 3.0 11.0 0.00 0.00 0.00 36 1007.7
20260504221023 75 351 4.0 10.0 0.00 0.00 0.00 32 1007.7
20260504220023 75 298 4.0 10.0 0.00 0.00 0.00 36 1008.0
20260504215043 74 2 6.0 13.0 0.00 0.00 0.00 35 1007.9
20260504214023 75 13 3.0 7.0 0.00 0.00 0.00 32 1008.1
20260504213022 75 106 2.0 9.0 0.00 0.00 0.00 34 1008.1
20260504212023 75 350 5.0 10.0 0.00 0.00 0.00 32 1008.1
20260504211042 75 11 4.0 10.0 0.00 0.00 0.00 32 1008.1
20260504210024 74 29 5.0 13.0 0.00 0.00 0.00 32 1008.1
20260504205044 74 310 3.0 8.0 0.00 0.00 0.00 34 1008.2
20260504204043 74 10 3.0 5.0 0.00 0.00 0.00 31 1008.4
20260504203023 74 355 4.0 8.0 0.00 0.00 0.00 33 1008.4
20260504202030 74 334 4.0 10.0 0.00 0.00 0.00 33 1008.4
20260504201047 74 1 4.0 8.0 0.00 0.00 0.00 35 1008.4
20260504200027 74 44 2.0 6.0 0.00 0.00 0.00 33 1008.4
20260504195047 74 10 3.0 8.0 0.00 0.00 0.00 37 1008.4
20260504194045 74 266 3.0 7.0 0.00 0.00 0.00 35 1008.4
20260504193046 73 52 3.0 7.0 0.00 0.00 0.00 36 1008.4
20260504192027 72 209 1.0 3.0 0.00 0.00 0.00 37 1008.4
20260504191027 71 34 2.0 7.0 0.00 0.00 0.00 38 1008.4
20260504190025 71 5 4.0 8.0 0.00 0.00 0.00 35 1008.4
20260504185025 71 35 4.0 9.0 0.00 0.00 0.00 37 1008.6
20260504184145 70 20 3.0 7.0 0.00 0.00 0.00 37 1008.6
20260504183023 70 45 3.0 7.0 0.00 0.00 0.00 39 1008.5
20260504182023 70 36 4.0 7.0 0.00 0.00 0.00 40 1008.6
20260504181022 69 64 2.0 6.0 0.00 0.00 0.00 40 1008.7
20260504180017 69 39 3.0 9.0 0.00 0.00 0.00 40 1008.8
20260504175016 68 46 3.0 8.0 0.00 0.00 0.00 41 1008.8
20260504174016 67 51 4.0 8.0 0.00 0.00 0.00 41 1008.8
20260504173050 66 44 4.0 11.0 0.00 0.00 0.00 42 1008.5
20260504172049 66 61 4.0 10.0 0.00 0.00 0.00 42 1008.5
20260504171031 65 35 4.0 9.0 0.00 0.00 0.00 42 1008.6
20260504151027 58 90 1.0 5.0 0.00 0.00 0.00 56 1008.8
20260504141047 53 25 3.0 5.0 0.00 0.00 0.00 60 1008.4
20260504081027 57 31 4.0 5.0 0.00 0.00 0.00 44 1008.4